Location: Palomar Mountain Lodge
(33.3110°N, 116.8495°W)
Time: 13:55:51
(UTC-07:00)

Daily predictions for brighter satellites

Satellite Brightness Start Highest point End
(mag) Time Altitude Azimuth Time Altitude Azimuth Time Altitude Azimuth
Cosmos 1302 Rocket 4.4 19:03:13 10° S 19:08:03 41° ESE 19:12:54 10° NNE
Cosmos 1331 Rocket 4.1 19:03:18 10° SSW 19:08:35 85° ESE 19:13:54 10° NNE
Hubble Space Telescope 2.1 19:06:12 10° SW 19:09:40 26° SSE 19:13:07 10° ESE
Cosmos 1315 Rocket 4.1 19:06:34 10° NNE 19:09:47 22° ENE 19:13:00 10° SE
Tiangong 2 1.1 19:10:57 10° WNW 19:14:07 74° NNE 19:17:17 10° ESE
CZ-4 R/B 2.7 19:12:14 10° S 19:16:12 46° W 19:20:07 10° NNW
NOAA 12 4.3 19:12:20 10° S 19:17:33 81° WSW 19:22:48 10° NNW
Cosmos 1400 Rocket 2.7 19:15:29 10° N 19:19:26 71° E 19:23:18 10° SSE
Cosmos 1656 3.9 19:16:59 10° N 19:22:20 51° ENE 19:27:45 10° SE
ASTRO E2 2.9 19:19:01 10° WSW 19:22:58 62° S 19:26:43 11° E
Cosmos 1697 Rocket 3.4 19:19:00 10° N 19:24:00 33° ENE 19:28:59 10° SE
Envisat 3.5 19:21:43 10° SE 19:26:24 39° ENE 19:31:06 10° N
FREGAT/IRIS 3.7 19:25:13 10° SE 19:27:36 23° ENE 19:30:00 10° NNE
NOSS 2 (A) 4.0 19:27:18 10° NNW 19:29:39 88° NE 19:32:20 10° SSE
Cosmos 1544 Rocket 3.5 19:26:58 10° S 19:31:14 66° E 19:35:33 10° NNE
Cosmos 1378 3.9 19:28:21 10° NNE 19:31:41 31° E 19:35:00 10° SE
SPOT 3 Rocket 3.8 19:27:03 10° SE 19:31:55 45° ENE 19:36:47 10° N
Meteosat 1 Rocket2 4.1 19:31:34 10° SW 19:34:53 28° SSE 19:37:56 14° ESE
USA 186 3.9 19:36:20 12° ENE 19:36:20 12° ENE 19:37:13 10° NE
GP-B 4.3 19:32:43 10° NE 19:36:11 22° E 19:39:38 10° SE
Meteor 1-21 4.4 19:31:15 10° N 19:36:57 81° W 19:42:41 10° S
Meteor 1-15 Rocket 4.4 19:34:39 10° S 19:40:21 55° E 19:46:07 10° NNE
Cosmos 1544 4.1 19:40:20 10° SSE 19:43:26 26° E 19:46:32 10° NNE
EO 1 Del DPAF 4.0 19:47:19 10° NE 19:50:40 29° E 19:54:00 10° SSE
Cosmos 2344 3.9 19:46:35 10° SW 19:54:15 72° WNW 20:02:12 10° NNE
Cosmos 2034 Rocket 3.9 19:49:21 10° N 19:55:31 66° E 20:01:42 10° SSE
Cosmos 1486 Rocket 4.3 19:51:52 10° N 19:56:51 44° ENE 20:00:16 19° SE
Tsikada Rocket 3.9 19:52:16 10° S 19:58:19 65° E 20:04:26 10° NNE
COSMOS 2487 3.9 19:56:40 10° SSE 20:04:21 - NNE 19:58:13 21° SSE
Resurs 01 Rocket 3.2 20:07:07 19° NE 20:07:07 19° NE 20:09:30 10° NNE
OAO 1 Rocket 4.4 20:01:32 10° WNW 20:06:54 85° NNE 20:09:32 31° E
COSMOS 2455 3.9 20:02:19 10° SSE 20:14:33 - NE 20:05:32 22° SE
Cosmos 1707 2.8 20:04:45 10° N 20:08:30 51° E 20:09:43 35° SE
Cosmos 2082 Rocket 3.5 20:03:21 10° SW 20:08:41 42° WNW 20:14:01 10° N
CZ-2D R/B 3.8 20:19:34 10° S 20:23:21 59° W 20:27:12 10° NNW
SL-24 R/B - RUBIN 2 3.6 20:23:34 10° SSW 20:28:28 61° ESE 20:29:33 47° ENE
Cosmos 1602 Rocket 3.4 20:25:08 10° N 20:29:37 85° E 20:31:14 40° S
Cosmos 2278 4.5 20:24:26 10° NNW 20:29:54 50° WSW 20:35:21 10° S
Cosmos 1980 Rocket 2.0 20:27:57 10° NNW 20:33:35 74° ENE 20:35:19 45° SE
Delta 168 4.2 20:30:24 10° SW 20:33:14 28° S 20:33:14 28° S
Thor Agena Rocket 4.0 20:32:50 10° NNE 20:36:44 42° ENE 20:36:44 42° ENE
YAOGAN 6 3.8 20:39:40 28° SSW 20:41:02 41° W 20:44:28 10° NNW
BREEZE M DEB (TANK) 3.6 20:33:07 10° NW 20:42:45 48° SW 20:43:57 37° S
Cosmos 1503 Rocket 3.9 20:37:54 10° N 20:43:09 64° ENE 20:43:15 64° ENE
SJ-6B 3.8 20:46:03 35° SW 20:46:55 42° W 20:50:31 10° NNW
Meteor 2-5 Rocket 3.7 20:42:23 10° N 20:48:21 80° E 20:49:48 54° SSE
Resurs 1-3 4.3 20:50:14 45° N 20:50:14 45° N 20:53:21 10° N
Hubble Space Telescope 2.1 20:46:38 10° WSW 20:49:10 31° SW 20:49:10 31° SW
Tiangong 2 4.1 20:49:11 10° WSW 20:50:02 12° SW 20:50:02 12° SW
SL-16 R/B 3.4 20:46:23 10° N 20:49:58 28° NE 20:49:58 28° NE
USA 229 DEB 4.2 20:47:34 10° S 21:02:29 - NE 20:51:41 38° SSE
USA 229 4.3 20:47:39 10° S 21:02:41 - NE 20:51:36 36° S
Meteor 1-22 Rocket 4.2 20:51:34 21° S 20:55:49 84° E 21:01:49 10° N
Atlas Centaur 2 3.6 20:51:57 10° WSW 20:55:49 23° SSW 20:55:58 23° SSW
Cosmos 2084 4.3 20:52:11 10° NW 20:55:05 43° WNW 20:55:05 43° WNW
SJ-11-01 4.5 21:00:38 70° WNW 21:00:38 70° WNW 21:05:00 10° NNW
Cosmos 2322 Rocket 3.4 20:55:15 10° N 20:58:42 29° NNE 20:58:42 29° NNE
Cosmos 1939 Rocket 4.3 21:02:25 33° WSW 21:03:06 35° W 21:06:54 10° NNW
ASTRO E2 4.4 20:59:25 10° W 21:01:36 30° WSW 21:01:36 30° WSW
H-2A R/B 4.0 21:06:46 17° NNE 21:06:46 17° NNE 21:08:05 10° N
Cosmos 1697 Rocket 4.5 21:03:07 10° NW 21:07:46 27° WSW 21:11:46 13° SSW
Cosmos 1354 Rocket 4.3 21:06:28 10° NNW 21:11:15 65° WNW 21:11:15 65° WNW
USA 234 3.5 21:15:54 55° NE 21:15:54 55° NE 21:22:05 10° NNW
Meteor 1-24 Rocket 4.0 21:15:56 10° N 21:21:17 69° NW 21:21:17 69° NW
BREEZE-M DEB (TANK) 4.4 21:20:48 10° WSW 21:27:40 30° NW 21:27:54 30° NW
Timation 2 Rocket 4.2 21:22:54 10° SSW 21:29:38 73° WNW 21:36:32 10° NNE
Resurs 01 Rocket 4.1 21:44:42 20° NW 21:44:42 20° NW 21:46:25 10° NW
